Tracking 30115 objects as of 17-Jan-2025
HD Live streaming from Space Station
objects crossing your sky now

DELTA 1 R/B

Track DELTA 1 R/B now!
10-day predictions


NORAD ID: 3767
Int'l Code: 1969-016B
Perigee: 1,426.5 km
Apogee: 1,504.2 km
Inclination: 101.4 °
Period: 115.1 minutes
Semi major axis: 7836 km
RCS: 0.5861 m2 (medium)
Launch date: February 26, 1969
Source: United States (US)
Launch site: AIR FORCE EASTERN TEST RANGE (AFETR)

Note: This is a ROCKET BODY
Your satellite tracking list
Your tracking list is empty




NASA's NSSDC Master Catalog

Two Line Element Set (TLE):
1 03767U 69016B   25016.89846562 -.00000004  00000-0  24745-3 0  9997
2 03767 101.4083  48.2712 0049564 262.8407 150.3060 12.51509585552247
Source of the keplerian elements: AFSPC